Regional Weather Roundup
Issued by NWS Sterling, VA

Home | Current Version | Previous Version | Graphics & Text | Print | Product List | Glossary On
Versions: 1 2 3 4 5 6 7 8 9 10 11 12 13 14 15 16 17 18 19 20 21 22 23 24 25 26 27 28 29 30 31 32 33 34 35 36 37 38 39 40 41 42 43 44 45 46 47 48 49 50
000
ASUS41 KLWX 241111
RWRLWX

REGIONAL WEATHER ROUNDUP
NATIONAL WEATHER SERVICE BALTIMORE MD/WASHINGTON DC
700 AM EDT THU MAY 24 2018

Note: "FAIR" indicates few or no clouds below 12,000 feet
with no significant weather and/or obstructions to visibility.
 TC=TEMPERATURE CELSIUS

 * =Non NWS site. Station does not report precipitation (e.g. rain,
    snow, etc.), thunder, or fog.

DCZ001-MDZ009-015-VAZ040>042-051-053>054-241200-
WASHINGTON METRO

CITY           SKY/WX    TMP DP  RH WIND       PRES   REMARKS
WASHINGTON NAT FAIR      65  56  72 N12       30.16R
DULLES         FAIR      60  57  89 NW3       30.18R
ANDREWS AFB    FAIR      61  56  85 CALM      30.15R
FT BELVOIR     FAIR      57  57  98 CALM      30.16R
QUANTICO       FAIR      63  60  90 W5        30.17R
COLLEGE PARK*  FAIR      57  56  95 CALM      30.16R
LEESBURG*      FAIR      64  59  82 CALM      30.19R
MANASSAS*      FAIR      57  56  96 CALM      30.18R
GAITHERSBURG*  FAIR      58  55  90 CALM      30.18R

$$

MDZ006>007-011-014-241200-
BALTIMORE METRO

CITY           SKY/WX    TMP DP  RH WIND       PRES   REMARKS
BWI AIRPORT    FAIR      64  54  69 W3        30.15R
MD SCIENCE CTR   N/A     70  53  54 MISG      30.16R
MARTIN STATE   MOSUNNY   66  57  72 NW7       30.16R
ANNAPOLIS        N/A    N/A N/A N/A MISG      30.14R
FORT MEADE*    FAIR      55  54  94 CALM      30.18R

$$

MDZ012-015-019>023-241200-
MARYLAND EASTERN SHORE

CITY           SKY/WX    TMP DP  RH WIND       PRES   REMARKS
OCEAN CITY     FAIR      63  59  87 NW7       30.12R
SALISBURY      FAIR      63  60  90 NW3       30.12R
BAY BRIDGE AP* FAIR      68  61  77 N6        30.14R
CAMBRIDGE*     SUNNY     66  61  82 NW7       30.13R
EASTON*        SUNNY     64  59  82 N5        30.17R

$$

MDZ017>025-241200-
SOUTHERN MARYLAND

CITY           SKY/WX    TMP DP  RH WIND       PRES   REMARKS
PATUXENT RIVER FAIR      69  60  73 NW12      30.14R
ST INIGOES     FAIR      65  60  84 CALM      30.14R
LEONARDTOWN*   FAIR      61  57  88 CALM      30.16R

$$

MDZ003>005-241200-
NORTH CENTRAL MARYLAND

CITY           SKY/WX    TMP DP  RH WIND       PRES   REMARKS
FREDERICK*     FAIR      57  57 100 CALM      30.20R
HAGERSTOWN APT FAIR      59  56  89 CALM      30.20R
WESTMINSTER*   FAIR      63  54  72 CALM      30.18R

$$

MDZ501>502-241200-
WESTERN MARYLAND

CITY           SKY/WX    TMP DP  RH WIND       PRES   REMARKS
OAKLAND*       FAIR      55  43  62 CALM      30.27R
CUMBERLAND*      N/A     52  52 100 CALM      30.27R VSB 3/4

$$

VAZ025>031-241200-
SHENANDOAH VALLEY

CITY           SKY/WX    TMP DP  RH WIND       PRES   REMARKS
WINCHESTER*    FAIR      54  52  94 CALM      30.22R
FRONT ROYAL*   FAIR     N/A N/A N/A S6        30.20R
LURAY*         FAIR      54  54 100 CALM      30.22R
NEW MARKET*    FAIR      54  52  95 CALM      30.21R
STAUNTON*      FAIR      55  54  97 CALM      30.25R FOG
WAYNESBORO*    FAIR      59  58  97 CALM      30.23R

$$

WVZ021-048>050-054>055-241200-
EASTERN WEST VIRGINIA PANHANDLE

CITY           SKY/WX    TMP DP  RH WIND       PRES   REMARKS
MARTINSBURG    FAIR      55  54  96 CALM      30.19R
PETERSBURG*    FAIR      52  52  99 CALM      30.24R FOG

$$

VAZ036>039-050-241200-
CENTRAL FOOTHILLS

CITY           SKY/WX    TMP DP  RH WIND       PRES   REMARKS
CHARLOTTESVILL FAIR      61  58  90 CALM      30.18R
CULPEPER*      FAIR      60  55  84 CALM      30.18R
ORANGE*        FAIR      57  55  94 CALM      30.18R
GORDONSVILLE*  FAIR      56  56 100 CALM      30.17R
WARRENTON*     FAIR      57  54  91 CALM      30.17R

$$

VAZ055>057-241200-
NORTH AND CENTRAL PIEDMONT

CITY           SKY/WX    TMP DP  RH WIND       PRES   REMARKS
FREDERICKSBRG* FAIR      59  59 100 CALM      30.16R
STAFFORD*      FAIR      57  57 100 CALM      30.20R

$$

NCZ024-NYZ072-PAZ021-071-VAZ022-071-241200-
OTHER REGIONAL OBSERVATIONS

CITY           SKY/WX    TMP DP  RH WIND       PRES   REMARKS
NEW YORK CITY  FAIR      64  53  67 NW8       30.13R
PHILADELPHIA   FAIR      65  53  65 NW7       30.14R
PITTSBURGH     FAIR      53  50  89 CALM      30.22R
ROANOKE        CLOUDY    67  57  70 N6        30.22R
RICHMOND       FAIR      65  58  78 N6        30.15
RALEIGH        MOCLDY    68  65  90 NE8       30.14R

$$

ANZ530>537-241200-
MARINE OBSERVATIONS

STATION/POSITION TIME  TEMP    WIND        PRES
                       AIR SEA DIR/SP/G
                 (UTC) (F)     (DEG/KT/KT) (MB)
THOMAS PT LIGHT  1100   68 69  360/ 11/ 12 1021.5R
BALT KEY BRIDGE  1048   69     340/ 10/ 12 1020.6R
COVE POINT       1048   67     340/  8/ 10 1021.2R
LEWISETTA        1048   69 76  330/  7/  8 1020.5R
SOLOMONS ISLAND  1048   67 71  310/  4/  6 1020.5R
PINEY POINT      1048          340/ 10/ 11   N/A

$$




USA.gov is the U.S. government's official web portal to all federal, state and local government web resources and services.